Time,TemperatureF,DewpointF,PressureIn,WindDirection,WindDirectionDegrees,WindSpeedMPH,WindSpeedGustMPH,Humidity,HourlyPrecipIn,Conditions,Clouds,dailyrainin,SoftwareType,DateUTC
2013-05-07 00:03:00,55.0,53.0,29.88,West,275,0.0,-999.0,92,-99.99,,,-99.99,,2013-05-07 04:03:00,
2013-05-07 00:12:00,55.0,53.0,29.88,West,275,0.0,-999.0,92,-99.99,,,-99.99,,2013-05-07 04:12:00,
2013-05-07 00:23:00,55.0,53.0,29.88,West,275,0.0,-999.0,92,-99.99,,,-99.99,,2013-05-07 04:23:00,
2013-05-07 00:33:00,55.0,53.0,29.88,West,275,0.0,-999.0,92,-99.99,,,-99.99,,2013-05-07 04:33:00,
2013-05-07 00:42:00,55.0,53.0,29.88,West,275,0.0,-999.0,92,-99.99,,,-99.99,,2013-05-07 04:42:00,
2013-05-07 00:53:00,55.0,53.0,29.88,West,275,0.0,-999.0,92,-99.99,,,-99.99,,2013-05-07 04:53:00,
2013-05-07 01:02:00,54.0,52.0,29.88,West,275,0.0,-999.0,92,-99.99,,,-99.99,,2013-05-07 05:02:00,
2013-05-07 01:12:00,54.0,52.0,29.88,West,275,0.0,-999.0,92,-99.99,,,-99.99,,2013-05-07 05:12:00,
2013-05-07 01:22:00,54.0,52.0,29.88,West,275,0.0,-999.0,93,-99.99,,,-99.99,,2013-05-07 05:22:00,
2013-05-07 01:32:00,53.0,51.0,29.88,West,275,0.0,-999.0,93,-99.99,,,-99.99,,2013-05-07 05:32:00,
2013-05-07 01:42:00,53.0,51.0,29.88,West,275,0.0,-999.0,93,-99.99,,,-99.99,,2013-05-07 05:42:00,
2013-05-07 01:52:00,53.0,51.0,29.88,West,275,0.0,-999.0,94,-99.99,,,-99.99,,2013-05-07 05:52:00,
2013-05-07 02:02:00,53.0,52.0,29.88,West,275,0.0,-999.0,95,-99.99,,,-99.99,,2013-05-07 06:02:00,
2013-05-07 02:12:00,53.0,52.0,29.88,West,275,0.0,-999.0,95,-99.99,,,-99.99,,2013-05-07 06:12:00,
2013-05-07 02:22:00,53.0,52.0,29.88,West,275,0.0,-999.0,95,-99.99,,,-99.99,,2013-05-07 06:22:00,
2013-05-07 02:32:00,54.0,53.0,29.87,West,275,0.0,-999.0,96,-99.99,,,-99.99,,2013-05-07 06:32:00,
2013-05-07 02:42:00,54.0,53.0,29.87,West,275,0.0,-999.0,96,-99.99,,,-99.99,,2013-05-07 06:42:00,
2013-05-07 02:52:00,54.0,53.0,29.86,West,275,0.0,-999.0,96,-99.99,,,-99.99,,2013-05-07 06:52:00,
2013-05-07 03:02:00,54.0,53.0,29.86,West,275,0.0,-999.0,96,-99.99,,,-99.99,,2013-05-07 07:02:00,
2013-05-07 03:11:00,54.0,53.0,29.86,West,275,0.0,-999.0,96,-99.99,,,-99.99,,2013-05-07 07:11:00,
2013-05-07 03:22:00,54.0,53.0,29.86,West,275,0.0,-999.0,96,-99.99,,,-99.99,,2013-05-07 07:22:00,
2013-05-07 03:32:00,54.0,53.0,29.86,West,275,0.0,-999.0,96,-99.99,,,-99.99,,2013-05-07 07:32:00,
2013-05-07 03:42:00,54.0,53.0,29.86,West,275,0.0,-999.0,96,-99.99,,,-99.99,,2013-05-07 07:42:00,
2013-05-07 03:52:00,54.0,53.0,29.86,West,275,0.0,-999.0,96,-99.99,,,-99.99,,2013-05-07 07:52:00,
2013-05-07 04:02:00,54.0,53.0,29.86,West,275,0.0,-999.0,96,-99.99,,,-99.99,,2013-05-07 08:02:00,
2013-05-07 04:11:00,54.0,53.0,29.86,West,275,0.0,-999.0,96,-99.99,,,-99.99,,2013-05-07 08:11:00,
2013-05-07 04:21:00,53.0,52.0,29.85,West,275,0.0,-999.0,96,-99.99,,,-99.99,,2013-05-07 08:21:00,
2013-05-07 04:32:00,53.0,52.0,29.85,West,275,0.0,-999.0,96,-99.99,,,-99.99,,2013-05-07 08:32:00,
2013-05-07 04:42:00,53.0,52.0,29.85,West,275,0.0,-999.0,96,-99.99,,,-99.99,,2013-05-07 08:42:00,
2013-05-07 04:52:00,53.0,52.0,29.86,West,275,0.0,-999.0,96,-99.99,,,-99.99,,2013-05-07 08:52:00,
2013-05-07 05:01:00,52.0,51.0,29.85,West,275,0.0,-999.0,96,-99.99,,,-99.99,,2013-05-07 09:01:00,
2013-05-07 05:11:00,52.0,51.0,29.85,West,275,0.0,-999.0,96,-99.99,,,-99.99,,2013-05-07 09:11:00,
2013-05-07 05:22:00,52.0,51.0,29.85,West,275,0.0,-999.0,96,-99.99,,,-99.99,,2013-05-07 09:22:00,
2013-05-07 05:33:00,52.0,51.0,29.85,West,275,0.0,-999.0,97,-99.99,,,-99.99,,2013-05-07 09:33:00,
2013-05-07 05:42:00,52.0,51.0,29.85,West,275,0.0,-999.0,97,-99.99,,,-99.99,,2013-05-07 09:42:00,
2013-05-07 05:52:00,52.0,51.0,29.85,West,275,0.0,-999.0,97,-99.99,,,-99.99,,2013-05-07 09:52:00,
2013-05-07 06:03:00,52.0,51.0,29.85,West,275,0.0,-999.0,96,-99.99,,,-99.99,,2013-05-07 10:03:00,
2013-05-07 06:12:00,52.0,51.0,29.85,West,275,0.0,-999.0,96,-99.99,,,-99.99,,2013-05-07 10:12:00,
2013-05-07 06:23:00,51.0,50.0,29.86,West,275,0.0,-999.0,97,-99.99,,,-99.99,,2013-05-07 10:23:00,
2013-05-07 06:32:00,52.0,51.0,29.86,West,275,0.0,-999.0,97,-99.99,,,-99.99,,2013-05-07 10:32:00,
2013-05-07 06:42:00,52.0,51.0,29.87,West,275,0.0,-999.0,97,-99.99,,,-99.99,,2013-05-07 10:42:00,
2013-05-07 06:52:00,52.0,51.0,29.87,West,275,0.0,-999.0,97,-99.99,,,-99.99,,2013-05-07 10:52:00,
2013-05-07 07:02:00,52.0,51.0,29.88,West,275,0.0,-999.0,97,-99.99,,,-99.99,,2013-05-07 11:02:00,
2013-05-07 07:12:00,52.0,51.0,29.88,West,275,0.0,-999.0,97,-99.99,,,-99.99,,2013-05-07 11:12:00,
2013-05-07 07:22:00,52.0,51.0,29.88,West,275,0.0,-999.0,97,-99.99,,,-99.99,,2013-05-07 11:22:00,
2013-05-07 07:32:00,53.0,52.0,29.88,West,275,0.0,-999.0,97,-99.99,,,-99.99,,2013-05-07 11:32:00,
2013-05-07 07:42:00,53.0,52.0,29.88,West,275,0.0,-999.0,97,-99.99,,,-99.99,,2013-05-07 11:42:00,
2013-05-07 07:52:00,53.0,52.0,29.89,West,275,0.0,-999.0,97,-99.99,,,-99.99,,2013-05-07 11:52:00,
2013-05-07 08:02:00,54.0,53.0,29.89,West,275,0.0,-999.0,97,-99.99,,,-99.99,,2013-05-07 12:02:00,
2013-05-07 08:11:00,54.0,53.0,29.89,West,275,0.0,-999.0,97,-99.99,,,-99.99,,2013-05-07 12:11:00,
2013-05-07 08:21:00,55.0,54.0,29.89,West,275,0.0,-999.0,97,-99.99,,,-99.99,,2013-05-07 12:21:00,
2013-05-07 08:32:00,56.0,55.0,29.89,West,275,0.0,-999.0,97,-99.99,,,-99.99,,2013-05-07 12:32:00,
2013-05-07 08:42:00,56.0,55.0,29.89,West,275,0.0,-999.0,97,-99.99,,,-99.99,,2013-05-07 12:42:00,
2013-05-07 08:52:00,56.0,55.0,29.90,West,273,0.0,-999.0,97,-99.99,,,-99.99,,2013-05-07 12:52:00,
2013-05-07 09:02:00,57.0,56.0,29.90,NW,311,0.0,-999.0,96,-99.99,,,-99.99,,2013-05-07 13:02:00,
2013-05-07 09:11:00,57.0,56.0,29.90,NW,311,0.0,-999.0,96,-99.99,,,-99.99,,2013-05-07 13:11:00,
2013-05-07 09:22:00,58.0,57.0,29.91,NW,311,0.0,-999.0,96,-99.99,,,-99.99,,2013-05-07 13:22:00,
2013-05-07 09:32:00,58.0,57.0,29.91,NW,311,0.0,-999.0,95,-99.99,,,-99.99,,2013-05-07 13:32:00,
2013-05-07 09:42:00,58.0,57.0,29.91,NW,311,0.0,-999.0,95,-99.99,,,-99.99,,2013-05-07 13:42:00,
2013-05-07 09:52:00,58.0,57.0,29.92,NW,311,0.0,-999.0,95,-99.99,,,-99.99,,2013-05-07 13:52:00,
2013-05-07 10:02:00,58.0,57.0,29.92,NW,311,0.0,-999.0,95,-99.99,,,-99.99,,2013-05-07 14:02:00,
2013-05-07 10:11:00,58.0,57.0,29.92,NW,311,0.0,-999.0,95,-99.99,,,-99.99,,2013-05-07 14:11:00,
2013-05-07 10:21:00,58.0,57.0,29.92,NW,311,0.0,-999.0,96,-99.99,,,-99.99,,2013-05-07 14:21:00,
2013-05-07 10:32:00,59.0,58.0,29.92,NW,311,0.0,-999.0,96,-99.99,,,-99.99,,2013-05-07 14:32:00,
2013-05-07 10:42:00,59.0,58.0,29.92,NW,311,0.0,-999.0,96,-99.99,,,-99.99,,2013-05-07 14:42:00,
2013-05-07 10:52:00,60.0,59.0,29.92,NW,313,0.0,-999.0,95,-99.99,,,-99.99,,2013-05-07 14:52:00,
2013-05-07 11:01:00,60.0,59.0,29.92,NW,313,0.0,-999.0,95,-99.99,,,-99.99,,2013-05-07 15:01:00,
2013-05-07 11:12:00,60.0,59.0,29.92,NW,313,0.0,-999.0,95,-99.99,,,-99.99,,2013-05-07 15:12:00,
2013-05-07 11:21:00,61.0,59.0,29.93,NW,307,0.0,-999.0,93,-99.99,,,-99.99,,2013-05-07 15:21:00,
2013-05-07 11:33:00,60.0,58.0,29.93,NW,309,0.0,-999.0,92,-99.99,,,-99.99,,2013-05-07 15:33:00,
2013-05-07 11:42:00,60.0,58.0,29.93,NW,309,0.0,-999.0,92,-99.99,,,-99.99,,2013-05-07 15:42:00,
2013-05-07 11:53:00,60.0,58.0,29.93,NW,309,0.0,-999.0,92,-99.99,,,-99.99,,2013-05-07 15:53:00,
2013-05-07 12:03:00,62.0,60.0,29.92,NNW,345,0.0,-999.0,94,-99.99,,,-99.99,,2013-05-07 16:03:00,
2013-05-07 12:12:00,64.0,61.0,29.91,North,355,0.0,-999.0,89,-99.99,,,-99.99,,2013-05-07 16:12:00,
2013-05-07 12:22:00,64.0,61.0,29.91,North,355,0.0,-999.0,89,-99.99,,,-99.99,,2013-05-07 16:22:00,
2013-05-07 12:32:00,65.0,60.0,29.91,SSE,155,0.0,-999.0,85,-99.99,,,-99.99,,2013-05-07 16:32:00,
2013-05-07 12:41:00,65.0,60.0,29.91,SSE,155,0.0,-999.0,85,-99.99,,,-99.99,,2013-05-07 16:41:00,
2013-05-07 12:51:00,65.0,60.0,29.91,SSE,155,0.0,-999.0,85,-99.99,,,-99.99,,2013-05-07 16:51:00,
2013-05-07 13:01:00,65.0,59.0,29.89,SE,140,0.0,-999.0,82,-99.99,,,-99.99,,2013-05-07 17:01:00,
2013-05-07 13:12:00,65.0,59.0,29.89,SE,140,0.0,-999.0,82,-99.99,,,-99.99,,2013-05-07 17:12:00,
2013-05-07 13:21:00,66.0,60.0,29.89,NW,319,0.0,-999.0,81,-99.99,,,-99.99,,2013-05-07 17:21:00,
2013-05-07 13:32:00,66.0,59.0,29.89,NW,320,0.0,-999.0,79,-99.99,,,-99.99,,2013-05-07 17:32:00,
2013-05-07 13:41:00,66.0,59.0,29.89,NW,320,0.0,-999.0,79,-99.99,,,-99.99,,2013-05-07 17:41:00,
2013-05-07 13:52:00,66.0,59.0,29.89,NW,320,0.0,-999.0,79,-99.99,,,-99.99,,2013-05-07 17:52:00,
2013-05-07 14:01:00,67.0,60.0,29.89,NW,318,0.0,-999.0,78,-99.99,,,-99.99,,2013-05-07 18:01:00,
2013-05-07 14:11:00,67.0,60.0,29.89,NW,318,0.0,-999.0,78,-99.99,,,-99.99,,2013-05-07 18:11:00,
2013-05-07 14:21:00,68.0,61.0,29.88,ESE,107,0.0,-999.0,77,-99.99,,,-99.99,,2013-05-07 18:21:00,
2013-05-07 14:31:00,69.0,60.0,29.88,SW,229,1.0,-999.0,72,-99.99,,,-99.99,,2013-05-07 18:31:00,
2013-05-07 14:42:00,69.0,60.0,29.88,SW,229,1.0,-999.0,72,-99.99,,,-99.99,,2013-05-07 18:42:00,
2013-05-07 14:52:00,70.0,59.0,29.88,NW,319,1.0,-999.0,69,-99.99,,,-99.99,,2013-05-07 18:52:00,
2013-05-07 15:02:00,71.0,59.0,29.88,WNW,291,1.0,-999.0,65,-99.99,,,-99.99,,2013-05-07 19:02:00,
2013-05-07 15:11:00,71.0,59.0,29.88,WNW,291,1.0,-999.0,65,-99.99,,,-99.99,,2013-05-07 19:11:00,
2013-05-07 15:21:00,72.0,59.0,29.86,SE,142,1.0,-999.0,64,-99.99,,,-99.99,,2013-05-07 19:21:00,
2013-05-07 15:32:00,73.0,59.0,29.86,WNW,286,1.0,-999.0,61,-99.99,,,-99.99,,2013-05-07 19:32:00,
2013-05-07 15:42:00,73.0,59.0,29.86,WNW,286,1.0,-999.0,61,-99.99,,,-99.99,,2013-05-07 19:42:00,
2013-05-07 15:52:00,72.0,58.0,29.85,WNW,295,1.0,-999.0,62,-99.99,,,-99.99,,2013-05-07 19:52:00,
2013-05-07 16:02:00,71.0,59.0,29.85,SSW,211,0.0,-999.0,65,-99.99,,,-99.99,,2013-05-07 20:02:00,
2013-05-07 16:12:00,71.0,59.0,29.85,SSW,211,0.0,-999.0,65,-99.99,,,-99.99,,2013-05-07 20:12:00,
2013-05-07 16:22:00,69.0,58.0,29.85,SE,142,0.0,-999.0,67,-99.99,,,-99.99,,2013-05-07 20:22:00,
2013-05-07 16:32:00,69.0,58.0,29.85,SE,141,0.0,-999.0,69,-99.99,,,-99.99,,2013-05-07 20:32:00,
2013-05-07 16:42:00,69.0,58.0,29.85,SE,141,0.0,-999.0,69,-99.99,,,-99.99,,2013-05-07 20:42:00,
2013-05-07 16:51:00,68.0,58.0,29.85,SE,145,0.0,-999.0,71,-99.99,,,-99.99,,2013-05-07 20:51:00,
2013-05-07 17:02:00,68.0,61.0,29.86,WSW,253,0.0,-999.0,78,-99.99,,,-99.99,,2013-05-07 21:02:00,
2013-05-07 17:11:00,68.0,61.0,29.86,WSW,253,0.0,-999.0,78,-99.99,,,-99.99,,2013-05-07 21:11:00,
2013-05-07 17:22:00,64.0,60.0,29.87,South,178,0.0,-999.0,87,-99.99,,,-99.99,,2013-05-07 21:22:00,
2013-05-07 17:33:00,62.0,60.0,29.86,West,267,0.0,-999.0,92,-99.99,,,-99.99,,2013-05-07 21:33:00,
2013-05-07 17:42:00,62.0,60.0,29.86,West,267,0.0,-999.0,92,-99.99,,,-99.99,,2013-05-07 21:42:00,
2013-05-07 17:52:00,62.0,60.0,29.86,West,271,0.0,-999.0,94,-99.99,,,-99.99,,2013-05-07 21:52:00,
2013-05-07 18:02:00,62.0,60.0,29.86,West,271,0.0,-999.0,94,-99.99,,,-99.99,,2013-05-07 22:02:00,
2013-05-07 18:13:00,62.0,60.0,29.86,West,271,0.0,-999.0,94,-99.99,,,-99.99,,2013-05-07 22:13:00,
2013-05-07 18:22:00,62.0,60.0,29.86,WSW,244,0.0,-999.0,94,-99.99,,,-99.99,,2013-05-07 22:22:00,
2013-05-07 18:33:00,63.0,61.0,29.86,SSW,212,0.0,-999.0,93,-99.99,,,-99.99,,2013-05-07 22:33:00,
2013-05-07 18:42:00,63.0,61.0,29.86,SSW,212,0.0,-999.0,93,-99.99,,,-99.99,,2013-05-07 22:42:00,
2013-05-07 18:52:00,63.0,61.0,29.86,SSW,212,0.0,-999.0,93,-99.99,,,-99.99,,2013-05-07 22:52:00,
2013-05-07 19:02:00,63.0,61.0,29.87,SSW,212,0.0,-999.0,94,-99.99,,,-99.99,,2013-05-07 23:02:00,
2013-05-07 19:12:00,63.0,61.0,29.87,SSW,212,0.0,-999.0,94,-99.99,,,-99.99,,2013-05-07 23:12:00,
2013-05-07 19:21:00,64.0,63.0,29.87,SSW,211,0.0,-999.0,95,-99.99,,,-99.99,,2013-05-07 23:21:00,
2013-05-07 19:32:00,64.0,63.0,29.88,SSW,211,0.0,-999.0,95,-99.99,,,-99.99,,2013-05-07 23:32:00,
2013-05-07 19:42:00,63.0,62.0,29.88,SSW,212,0.0,-999.0,95,-99.99,,,-99.99,,2013-05-07 23:42:00,
2013-05-07 19:52:00,63.0,62.0,29.88,SSW,212,0.0,-999.0,95,-99.99,,,-99.99,,2013-05-07 23:52:00,
2013-05-07 20:02:00,63.0,62.0,29.89,SSW,212,0.0,-999.0,95,-99.99,,,-99.99,,2013-05-08 00:02:00,
2013-05-07 20:12:00,63.0,62.0,29.89,SSW,212,0.0,-999.0,95,-99.99,,,-99.99,,2013-05-08 00:12:00,
2013-05-07 20:22:00,62.0,61.0,29.89,SSW,212,0.0,-999.0,95,-99.99,,,-99.99,,2013-05-08 00:22:00,
2013-05-07 20:32:00,62.0,61.0,29.90,SSW,211,0.0,-999.0,95,-99.99,,,-99.99,,2013-05-08 00:32:00,
2013-05-07 20:42:00,62.0,61.0,29.90,SSW,211,0.0,-999.0,95,-99.99,,,-99.99,,2013-05-08 00:42:00,
2013-05-07 20:51:00,62.0,61.0,29.90,SSW,211,0.0,-999.0,95,-99.99,,,-99.99,,2013-05-08 00:51:00,
2013-05-07 21:02:00,61.0,60.0,29.91,SSW,212,0.0,-999.0,95,-99.99,,,-99.99,,2013-05-08 01:02:00,
2013-05-07 21:11:00,61.0,60.0,29.91,SSW,212,0.0,-999.0,95,-99.99,,,-99.99,,2013-05-08 01:11:00,
2013-05-07 21:22:00,61.0,60.0,29.91,SSW,212,0.0,-999.0,96,-99.99,,,-99.99,,2013-05-08 01:22:00,
2013-05-07 21:32:00,60.0,59.0,29.91,SSW,212,0.0,-999.0,96,-99.99,,,-99.99,,2013-05-08 01:32:00,
2013-05-07 21:42:00,60.0,59.0,29.91,SSW,212,0.0,-999.0,96,-99.99,,,-99.99,,2013-05-08 01:42:00,
2013-05-07 21:52:00,60.0,59.0,29.91,SSW,212,0.0,-999.0,96,-99.99,,,-99.99,,2013-05-08 01:52:00,
2013-05-07 22:02:00,59.0,58.0,29.91,SSW,211,0.0,-999.0,96,-99.99,,,-99.99,,2013-05-08 02:02:00,
2013-05-07 22:12:00,59.0,58.0,29.91,SSW,211,0.0,-999.0,96,-99.99,,,-99.99,,2013-05-08 02:12:00,
2013-05-07 22:22:00,59.0,58.0,29.92,SSW,211,0.0,-999.0,96,-99.99,,,-99.99,,2013-05-08 02:22:00,
2013-05-07 22:32:00,58.0,57.0,29.92,SSW,212,0.0,-999.0,96,-99.99,,,-99.99,,2013-05-08 02:32:00,
2013-05-07 22:42:00,58.0,57.0,29.92,SSW,212,0.0,-999.0,97,-99.99,,,-99.99,,2013-05-08 02:42:00,
2013-05-07 22:52:00,58.0,57.0,29.92,SSW,212,0.0,-999.0,97,-99.99,,,-99.99,,2013-05-08 02:52:00,
2013-05-07 23:02:00,57.0,56.0,29.92,SSW,212,0.0,-999.0,97,-99.99,,,-99.99,,2013-05-08 03:02:00,
2013-05-07 23:11:00,57.0,56.0,29.92,SSW,212,0.0,-999.0,97,-99.99,,,-99.99,,2013-05-08 03:11:00,
2013-05-07 23:21:00,57.0,56.0,29.93,SSW,211,0.0,-999.0,97,-99.99,,,-99.99,,2013-05-08 03:21:00,
2013-05-07 23:33:00,56.0,55.0,29.93,SSW,211,0.0,-999.0,97,-99.99,,,-99.99,,2013-05-08 03:33:00,
2013-05-07 23:43:00,56.0,55.0,29.93,SSW,211,0.0,-999.0,97,-99.99,,,-99.99,,2013-05-08 03:43:00,
2013-05-07 23:52:00,56.0,55.0,29.93,SSW,212,0.0,-999.0,97,-99.99,,,-99.99,,2013-05-08 03:52:00,